User: anonymous   Login
Location: Unspecified
(0.0000°N, 0.0000°E)
Time: 18:10:29
(UTC+00:00)
Language:

COSMOS 2468 - Orbit

View from above orbital plane
View from above orbital plane
View from above satellite
View from above satellite

Ground track
Ground track

The orbit data is extracted from the following two-line orbital elements,

1 37154U 10043C   21026.23380439  .00000014  00000-0  30276-4 0  9998
2 37154  82.4600 214.3186 0013749 281.0597  78.8954 12.43661571471316
Epoch (UTC): 26 January 2021 05:36:40
Eccentricity: 0.0013749
inclination: 82.4600°
perigee height: 1480 km
apogee height: 1502 km
right ascension of ascending node: 214.3186°
argument of perigee: 281.0597°
revolutions per day: 12.43661571
mean anomaly at epoch: 78.8954°
orbit number at epoch: 47131

The dashed part of the orbit path shows where the satellite is in the earth's shadow,  

DLR